Powrót do katalogu

STARLINK-32308

AktywnyŁącznośćVLEO
NORAD 61663·PAYLOAD·🇺🇸 United States

Wystrzelony Oct 26, 2024 z Cape Canaveral Space Force Station

Loading…

Następne Przeloty (najbliższe 24 godziny)

TLE

ŚwieżeSource: CelesTrak SupGP

Epoka: Sep 14, 2026, 22:21 UTC

1 61663C 24193C   26257.93173611  .00049992  00000+0  14773-2 0  2577
2 61663  53.1584 287.7061 0001180  91.5122 170.7644 15.34358913    13

Śledź STARLINK-32308 w czasie rzeczywistym z AllMySat

Download on the App Store